Location: Saint-Restitut
(44.3351°N, 4.7915°E)
Time: 08:32:48
(UTC+00:00)

IGS 5A - Pass Details

Date: 03 February 2023
Orbit: 578 x 583 km, 97.5° (Epoch: 10 March)

Event Time Altitude Azimuth Distance (km) Brightness Sun altitude
Exits shadow 18:20:11 26° 55° (NE) 1,165 4.5 -15.9°
Drops below altitude 10° 18:23:08 10° 11° (N) 1,908 5.9 -16.4°
Sets 18:25:31 0° 359° (N) 2,811 6.9 -16.8°
